Location: Les Gen�tes
(46.3104°N, 1.5969°E)
Time: 20:51:55
(UTC+00:00)

Cosmos 1110 Rocket - Pass Details

Date: 01 June 2020
Orbit: 752 x 781 km, 74.0° (Epoch: 11 July)

Event Time Altitude Azimuth Distance (km) Brightness Sun altitude
Exits shadow 20:40:04 - 179° (S) 3,045 6.7 -9.0°
Reaches altitude 10° 20:42:07 10° 174° (S) 2,278 6.0 -9.2°
Maximum altitude 20:46:58 43° 104° (ESE) 1,058 4.4 -9.8°
Drops below altitude 10° 20:51:49 10° 34° (NE) 2,286 6.6 -10.3°
Sets 20:54:17 0° 28° (NNE) 3,214 7.5 -10.6°
